STARLINK-2705 (48672 NORAD) Tracking and Keplerian Element Data

This shows tracking and keplerian element data for the satellite.

Feedback or suggestion? Click here.




ElementValue
Catalog48672
NameSTARLINK-2705
Epoch Orbit181
Epoch Day170.58334491
Epoch Year2021
RAAN306.2649
Inclination53.0476
Eccentricity0.0001429
Argument of Perigee52.4341
Mean Anonmoly69.9259
Mean Motion15.73271762
Decay Rate-0.0004401
L11 48672U 21044AL 21170.58334491 -.00044010 00000-0 -30977-3 0 9996
L22 48672 53.0476 306.2649 0001429 52.4341 69.9259 15.73271762 1810

Live tracking and technical data element details for STARLINK-2705 (NORAD 48672). STARLINK-2705 can be tracked NOW for your location showing map with azimuth and elevation plus other details from your city location.

Track the satellite on the map from your city or location and see movement details for azimuth, elevation, latitude, longitude, range, height, and movement on the map or in text.







IsCatalogInMostPopularTable: catalog: 48672, numindb: 5
Update: records affected: 1



GetName: 48672 STARLINK-2705

Hit Count: updated at: Mon, 21 Jun 2021 04:13:49 GMT